Preview of NWS' New Version of Forecast
This preview is not operational and should not be used for support decisions.
Latest weather observations around

Bedford, Hanscom Field (KBED)

Using English Units (Switch to International System of Units)
Date/ Time (EDT) Wind (mph) Vis. (mi) Weather Sky Cond. Temp (°F) Rel. Humidity Wind Chill (°F) Heat Index (°F) Pressure Precip. (in)
Air Dwpt 6 hour Altimeter (inHg) Sea level (inHg) 1 hr 3 hr 6 hr
Max Min
Jun 20 13:34 ESE 7 2.5 Light Rain OVC005 66        %     29.6        
Jun 20 13:12 ESE 6 7 Cloudy OVC005 66        %     29.61        
Jun 20 13:04 E 6 2.5 Light Rain BKN005 OVC020 66        %     29.62        
Jun 20 12:56 ESE 6 3 Light Rain OVC008 66        %     29.62 29.65      
Jun 20 12:33 E 7 3 Light Rain OVC008 66        %     29.63        
Jun 20 12:28 ESE 6 1.75 Light Rain OVC008 66        %     29.64        
Jun 20 12:04 E 6 4 Light Rain FEW004 BKN022 OVC032 64        %     29.64        
Jun 20 12:02 E 6 2.5 Light Rain SCT019 BKN024 OVC032 64        %     29.65        
Jun 20 11:56 E 7 0.75 Heavy Rain FEW005 BKN022 OVC032 64        %     29.65 29.68      
Jun 20 11:48 E 8 0.5 Heavy Rain SCT005 BKN022 OVC042 64        %     29.65        
Jun 20 11:37 E 9 1 Heavy Rain BKN005 OVC022 64        %     29.66        
Jun 20 11:28 E 6 0.75 Heavy Rain OVC005 64        %     29.67        
Jun 20 11:14 E 9 1.75 Rain OVC005 64        %     29.66        
Jun 20 09:56 ESE 8 4 Light Rain OVC005 66        %     29.68 29.71      
Jun 20 09:03 ESE 8 10 Fog/Mist OVC005 66        %     29.69        
Jun 20 08:56 ESE 8 2 Fog/Mist OVC005 66        %     29.69 29.72      
Jun 20 08:03 E 6 2 Light Rain and Fog/Mist OVC005 66        %     29.7        
Jun 20 07:45 E 7 3 Fog/Mist BKN005 OVC013 66        %     29.71        
Jun 20 07:20 E 6 1.5 Light Rain BKN005 BKN014 OVC021 66        %     29.71        
Jun 20 07:07 ESE 3 2 Light Rain BKN005 BKN010 OVC023 66        %     29.72        
Jun 20 07:02 E 3 1 Light Rain SCT005 BKN011 OVC023 66        %     29.72        
Jun 20 06:56 Calm 0.75 Heavy Rain BKN007 OVC015 66        %     29.72 29.75      
Jun 20 06:26 Calm 1.75 Light Rain and Fog/Mist OVC005 66 65     96%     29.72   0    
Jun 20 05:56 Calm 5 Light Rain and Fog/Mist OVC007 66 64     93%     29.72 29.75 0    
Jun 20 05:46 Calm 4 Light Rain and Fog/Mist BKN007 OVC013 66 63     90%     29.72   0    
Jun 20 05:32 E 3 2 Rain and Fog/Mist BKN009 OVC013 66 62     87%     29.72   0    
Jun 20 04:56 SE 5 10 Light Rain OVC008 66 62     87%     29.73 29.76 0 0  
Jun 20 04:20 Calm 8 Light Rain BKN009 OVC013 66 62     87%     29.73   0    
Jun 20 04:07 SSE 3 3 Light Rain and Fog/Mist OVC011 66 62     87%     29.73   0    
Jun 20 04:01 SSE 3 2 Light Rain and Fog/Mist BKN008 OVC013 66 62     87%     29.73   0    
Jun 20 03:56 S 3 3 Light Rain and Fog/Mist OVC010 66 62     87%     29.73 29.76 0    
Jun 20 02:56 S 3 10 Cloudy OVC008 67 62     84%     29.75 29.78      
Jun 20 01:56 S 3 10 Cloudy OVC009 67 62     84%     29.75 29.78      
Jun 20 00:56 S 6 10 Cloudy OVC009 67 62     84%     29.76 29.79      
Jun 20 00:41 S 7 10 Cloudy OVC009 67 62     84%     29.76        
Jun 19 23:56 S 8 10 Cloudy OVC011 68 62     81%     29.78 29.81      
Jun 19 23:29 S 5 10 Mostly Cloudy BKN012 BKN120 67 62     84%     29.79        
Jun 19 22:56 S 5 10 Mostly Cloudy SCT011 BKN120 68 62     81%     29.78 29.82      
Jun 19 21:56 S 8 10 Mostly Cloudy BKN100 69 63     81%     29.8 29.83      
Jun 19 20:56 S 7 10 Cloudy OVC110 71 63     76%   71 29.8 29.83      
Jun 19 19:56 S 9 10 Cloudy FEW023 OVC100 73 64     73%   73 29.8 29.83      
Jun 19 18:56 S 8 10 Mostly Clear FEW023 FEW100 75 64     69%   75 29.79 29.82      
Jun 19 17:56 SSE 7 10 Mostly Cloudy FEW032 SCT120 BKN250 75 64     69%   75 29.79 29.82      
Jun 19 16:56 ESE 14 10 Mostly Cloudy SCT029 BKN042 BKN250 75 63     66%   75 29.81 29.84      
Jun 19 15:56 SSE 9 10 Mostly Cloudy SCT025 BKN031 BKN043 BKN250 76 64     67%   76 29.82 29.85      
Jun 19 15:48 SE 11 10 Mostly Cloudy SCT025 BKN031 BKN043 77 65     66%   78 29.82        
Jun 19 15:31 S 9 10 Cloudy BKN024 OVC043 76 64     67%   76 29.83        
Jun 19 15:03 SE 8 10 Cloudy OVC037 76 64     67%   76 29.83        
Jun 19 14:56 S 7 10 Cloudy BKN025 OVC035 77 64     64%   77 29.83 29.86      
Jun 19 14:03 SSE 9 10 Mostly Cloudy FEW025 BKN034 76 64     67%   76 29.84        
Jun 19 13:56 SE 8 10 Cloudy BKN025 OVC034 76 64     67%   76 29.84 29.87      
Jun 19 13:15 SSE 6 10 Cloudy OVC032 74 63     69%   74 29.86        
Jun 19 12:56 SSE 7 9 Cloudy FEW023 OVC029 74 64     71%   74 29.86 29.89      
Jun 19 11:56 SE 5 10 Cloudy OVC015 72 63     73%   72 29.87 29.91      
Jun 19 10:56 ENE 3 10 Cloudy OVC019 71 63     76%   71 29.87 29.9      
Jun 19 10:21 NE 3 9 Cloudy OVC015 70 63     78%     29.87        
Jun 19 09:56 Calm 8 Cloudy OVC011 69 62     78%     29.87 29.91      
Jun 19 09:22 Calm 8 Cloudy OVC011 68 62     81%     29.87        
Jun 19 08:56 Calm 3 Fog/Mist OVC005 68 63     84%     29.88 29.91      
Jun 19 07:56 Calm 3 Fog/Mist OVC005 68 63     84%     29.87 29.91      
Jun 19 07:28 Calm 3 Fog/Mist BKN005 OVC014 67 63     87%     29.87        
Jun 19 07:03 Calm 3 Fog/Mist FEW004 OVC014 67 63     87%     29.87        
Jun 19 06:56 Calm 2 Fog/Mist OVC004 67 63     87%     29.87 29.9      
Jun 19 06:39 Calm 2 Fog/Mist BKN004 OVC014 67 63     87%     29.87        
Jun 19 06:29 Calm 1.75 Fog/Mist BKN004 OVC014 67 63     87%     29.87        
Jun 19 05:56 Calm 2 Fog/Mist OVC003 66 63     90%     29.86 29.89      
Jun 19 05:19 Calm 1.25 Fog/Mist OVC002 66 63     90%     29.86        
Jun 19 05:12 Calm 0.75 Fog/Mist OVC002 66 63     90%     29.86        
Jun 19 04:56 Calm 1 Fog/Mist OVC002 66 63     90%     29.86 29.89      
Jun 19 04:22 Calm 1.75 Fog/Mist OVC002 66 63     90%     29.86        
Jun 19 04:14 Calm 2 Fog/Mist OVC002 66 63     90%     29.86        
Jun 19 04:07 Calm 1.75 Fog/Mist OVC002 66 63     90%     29.86        
Jun 19 03:56 Calm 2 Fog/Mist OVC002 66 63     90%     29.86 29.9      
Jun 19 03:25 Calm 2 Fog/Mist OVC002 66 63     90%     29.86        
Jun 19 02:56 NNE 3 1.25 Fog/Mist OVC002 66 63     90%     29.87 29.9      
Jun 19 01:56 NE 3 1.5 Fog/Mist OVC002 67 63     87%     29.87 29.91      
Jun 19 01:08 Calm 1.5 Fog/Mist OVC004 67 64     90%     29.87        
Jun 19 00:56 Calm 2 Fog/Mist OVC004 67 64     90%     29.88 29.91      
Jun 19 00:46 Calm 2 Fog/Mist BKN004 OVC009 67 64     90%     29.88        
Jun 19 00:36 NE 3 1.75 Fog/Mist BKN004 BKN011 OVC016 67 64     90%     29.88        
Jun 19 00:23 ENE 3 1.75 Fog/Mist SCT003 BKN010 OVC016 67 64     90%     29.88        
Jun 19 00:14 ENE 3 2 Fog/Mist BKN003 OVC012 67 64     90%     29.88        
Jun 18 23:56 ENE 5 1.5 Fog/Mist OVC002 67 64     90%     29.88 29.92      
Jun 18 23:07 NE 5 1.75 Fog/Mist OVC004 68 64     87%     29.89        
Jun 18 22:56 NE 5 2.5 Fog/Mist OVC005 68 65     90%     29.89 29.92      
Jun 18 21:56 NE 3 2.5 Fog/Mist OVC006 68 65     90%     29.89 29.92      
Jun 18 21:36 NE 5 2.5 Fog/Mist OVC005 68 65     90%     29.89        
Jun 18 20:56 NE 3 3 Fog/Mist OVC005 68 65     90%     29.89 29.92      
Jun 18 20:49 NNE 3 3 Fog/Mist BKN005 OVC010 68 65     90%     29.89        
Jun 18 20:25 NE 3 2.5 Fog/Mist BKN005 OVC010 68 65     90%     29.89        
Jun 18 20:17 NE 3 2.5 Fog/Mist SCT004 OVC010 68 65     90%     29.89        
Jun 18 19:56 Calm 3 Fog/Mist BKN005 OVC016 69 67     93%     29.9 29.93     0
Jun 18 19:45 Calm 3 Fog/Mist BKN005 OVC016 68 66     93%     29.9        
Jun 18 19:37 NE 3 2.5 Fog/Mist BKN004 OVC016 68 66     93%     29.9        
Jun 18 19:12 N 7 3 Fog/Mist BKN004 OVC016 68 66     93%     29.9        
Jun 18 19:10 N 6 3 Fog/Mist SCT010 OVC017 68 66     93%     29.9        
Jun 18 19:03 N 7 4 Fog/Mist BKN013 OVC017 69 66     90%     29.9        
Jun 18 18:56 NNW 6 3 Fog/Mist BKN004 OVC016 69 66     90%     29.9 29.93      
Jun 18 18:32 Calm 3 Fog/Mist BKN007 OVC016 70 68     93%     29.89        
Jun 18 18:07 SSE 5 5 Fog/Mist SCT007 OVC016 70 67     90%     29.89        
Jun 18 17:56 SE 5 8 Cloudy SCT007 OVC016 69 67     93%     29.89 29.93 0    
Jun 18 17:07 NNW 5 3 Light Rain and Fog/Mist OVC007 68 66     93%     29.91   0    
Jun 18 16:59 WNW 5 2.5 Light Rain and Fog/Mist OVC011 68 66     93%     29.91   0    
Jun 18 16:56 WNW 5 4 Light Rain and Fog/Mist OVC007 68 66     93%     29.91 29.94 0 0  
Jun 18 15:56 SSE 5 4 Light Rain and Fog/Mist OVC007 70 68     93%     29.9 29.93 0    
Jun 18 15:35 6 3 Light Rain and Fog/Mist OVC007 70 66     87%     29.92   0    
Jun 18 15:22 SSE 7 2.5 Light Rain and Fog/Mist OVC007 70 66     87%     29.92   0    
Jun 18 14:56 SE 9 3 Light Rain SCT015 OVC100 71 65     81%   72 29.92 29.96 0    
Jun 18 14:19 Calm 6 Light Rain BKN020 OVC090 72 64     76%   72 29.94   0    
Jun 18 14:08 N 5 5 Light Rain SCT023 SCT080 OVC100 72 64     76%   72 29.94   0    
Jun 18 13:56 NNW 3 7 Light Rain BKN023 BKN080 OVC100 73 64     73%   73 29.94 29.98 0   0
Jun 18 13:27 Calm 10 Mostly Cloudy BKN021 73 63     71%   73 29.94        
Jun 18 12:56 Calm 10 Partly Cloudy SCT019 73 62     68%   73 29.95 29.98      
Jun 18 12:03 Calm 10 Partly Cloudy FEW019 SCT049 73 62     68%   73 29.96        
Jun 18 11:56 Calm 10 Cloudy BKN015 OVC100 73 63     71%   73 29.96 29.99      
Jun 18 10:56 Calm 10 Mostly Clear FEW013 71 62     73%   71 29.97 30      
Jun 18 10:37 Calm 10 Partly Cloudy SCT013 71 62     73%   71 29.97        
Jun 18 10:13 N 3 10 Mostly Cloudy BKN013 70 61     73%     29.97        
Jun 18 09:56 NW 5 10 Mostly Cloudy BKN015 69 61     75%     29.97 30.01      
Jun 18 09:41 NNW 5 10 Cloudy OVC015 69 61     75%     29.97        
Jun 18 08:56 Calm 10 Cloudy OVC011 69 62     78%     29.97 30      
Jun 18 08:26 NE 3 9 Cloudy OVC010 69 63     81%     29.96        
Jun 18 07:56 Calm 7 Cloudy OVC007 67 62     84%     29.97 30      
Jun 18 07:08 Calm 7 Mostly Cloudy BKN005 66 62     87%     29.96        
Jun 18 06:56 Calm 6 Haze FEW006 SCT060 BKN120 66 61     84%     29.96 29.99      
Jun 18 05:56 Calm 5 Fog/Mist FEW110 63 59     87%     29.96 30      
Jun 18 05:25 Calm 6 Fog/Mist SCT007 OVC120 63 60     90%     29.96        
Jun 18 05:04 NW 3 6 Fog/Mist BKN006 OVC120 64 60     87%     29.96        
Jun 18 04:56 Calm 7 Mostly Cloudy SCT006 BKN120 64 60     87%     29.96 29.99      
Jun 18 04:54 Calm 7 Mostly Cloudy SCT006 BKN120 64 61     88%     29.96        
Jun 18 03:56 Calm 7 Mostly Cloudy BKN110 64 60     87%     29.96 29.99      
Jun 18 02:56 Calm 9 Mostly Clear FEW120 64 60     87%     29.96 29.99      
Jun 18 01:56 Calm 10 Clear CLR 64 60     87%     29.97 30      
Jun 18 00:56 Calm 10 Clear CLR 65 60     84%     29.98 30.01      
Jun 17 23:56 Calm 10 Clear CLR 67 60     79%     29.97 30.01      
Jun 17 22:56 S 6 10 Clear CLR 67 60     79%     29.97 30      
Jun 17 21:56 Calm 10 Clear CLR 66 59     78%     29.96 29.99      
Jun 17 20:56 SW 3 10 Clear CLR 69 58     68%     29.95 29.98      
Jun 17 19:56 SSW 5 10 Mostly Cloudy BKN250 72 59     64%   72 29.94 29.98      
Jun 17 18:56 SW 5 10 Mostly Cloudy BKN250 77 55     47%   77 29.94 29.97      
Jun 17 17:56 SW 9 10 Clear CLR 77 56     48%   77 29.94 29.97      
Jun 17 16:56 SSW 9 10 Clear CLR 78 57     48%   78 29.96 29.98      
Jun 17 15:56 WSW 7 10 Mostly Cloudy SCT038 BKN250 77 56     48%   77 29.96 29.99      
Jun 17 14:56 SSW 7 10 Mostly Cloudy SCT038 BKN250 76 56     50%   76 29.96 29.99      
Jun 17 13:56 W 5 10 Clear CLR 77 55     47%   77 29.96 29.99      
May 14 11:56 7 10 Cloudy OVC027 62 51     67%     29.97 30.01      
May 14 05:56 Calm 10 Clear   50 47     89%     30 30.04      
May 13 01:34 NNW 5 8 Mostly Cloudy BKN006 46 45     96% 44   30.12        
May 12 16:56 NNW 5 3 Light Rain and Fog/Mist OVC005 48 47     96% 46   30.11 30.15 0 0  
Jun 11 22:56 SW 6 10 Clear CLR 78 61     56%   78 29.91 29.94      
Jun 11 12:56 WSW 8 10 Clear CLR 83 58     43%   83 29.94 29.97      
Jun 10 08:56 SW 6 10 Clear CLR 73 53     50%   72 29.95 29.98      
Jun 09 09:56 W 7 10 Partly Cloudy SCT150 70 44     39%     29.64 29.67      
Jun 09 03:56 Calm 10 Clear   55 47     74%     29.71 29.74      
Jun 08 11:56 5 10 Clear CLR 77 47     35%   76 30 30.03      
Jun 07 16:56 ESE 8 10 Mostly Clear FEW040 70 44     39%     29.94 29.98      
Jun 07 11:56 NE 9 10 Clear CLR 66 50     56%     29.95 29.99      
Jun 06 08:48 NE 11 2 Fog/Mist OVC004 49 47     93% 44   29.82   0    
Notice The following observation data may not be complete
Jun 06 08:03   1.75 Fog/Mist BKN010 OVC014          %         0    
Jun 06 05:56 NE 16 1.5 Fog/Mist OVC009 49 46     90% 43   29.8 29.84 0    
Notice The following observation data may not be complete
Jun 06 03:56   6 Light Rain and Fog/Mist OVC010          %         0    
Jun 05 14:56 ENE 10 1.25 Fog/Mist VV004 56 53     90%     29.85 29.88